Tracking 29967 objects as of 5-Dec-2024
HD Live streaming from Space Station
objects crossing your sky now

PALAPA 2

Track PALAPA 2 now!
PALAPA 2 is classified as:


NORAD ID: 9862
Int'l Code: 1977-018A
Perigee: 35,850.8 km
Apogee: 35,867.9 km
Inclination: 9.8 °
Period: 1,439.4 minutes
Semi major axis: 42230 km
RCS: 5.6864 m2 (large)
Launch date: March 10, 1977
Source: Indonesia (INDO)
Launch site: AIR FORCE EASTERN TEST RANGE (AFETR)
Your satellite tracking list
Your tracking list is empty




NASA's NSSDC Master Catalog

Two Line Element Set (TLE):
1 09862U 77018A   24339.82668844 -.00000325  00000-0  00000-0 0  9996
2 09862   9.7635 314.1897 0002024 145.7825  24.3199  1.00038230137512
Source of the keplerian elements: AFSPC